Location: Unspecified
(58.7730°N, 5.8460°E)
Time: 04:03:43
(UTC+02:00)

Okean 3 - Visible Passes

Search period start: 21 September 2014 00:00
Search period end: 01 October 2014 00:00
Orbit: 584 x 609 km, 82.5° (Epoch: 20 September)

Date Brightness Start Highest point End Pass type
(mag) Time Alt. Az. Time Alt. Az. Time Alt. Az.
21 Sep 6.3 01:01:20 10° ENE 01:01:20 10° ENE 01:01:28 10° ENE visible
21 Sep 4.7 02:38:01 40° NE 02:38:01 40° NE 02:40:57 10° NNE visible
21 Sep 5.0 04:14:43 24° NW 04:14:43 24° NW 04:18:03 10° N visible
22 Sep 6.1 01:11:41 13° ENE 01:11:41 13° ENE 01:12:44 10° NE visible
22 Sep 4.6 02:48:23 42° NNE 02:48:23 42° NNE 02:51:17 10° NNE visible
22 Sep 5.3 04:25:04 19° NW 04:25:04 19° NW 04:28:07 10° N visible
23 Sep 5.9 01:22:02 17° NE 01:22:02 17° NE 01:23:30 10° NE visible
23 Sep 4.7 02:58:43 39° N 02:58:43 39° N 03:01:35 10° N visible
23 Sep 5.6 04:35:25 15° NW 04:35:33 15° NW 04:38:03 10° NNW visible
24 Sep 5.8 01:32:22 20° NE 01:32:22 20° NE 01:34:05 10° NNE visible
24 Sep 4.9 03:09:04 34° NNW 03:09:04 34° NNW 03:11:50 10° N visible
24 Sep 5.8 04:45:45 12° NW 04:46:09 12° NW 04:47:43 10° NNW visible
25 Sep 5.6 01:42:42 23° NE 01:42:42 23° NE 01:44:34 10° NNE visible
25 Sep 5.1 03:19:23 29° NNW 03:19:23 29° NNW 03:22:02 10° N visible
26 Sep 5.6 01:53:01 25° NNE 01:53:01 25° NNE 01:54:58 10° NNE visible
26 Sep 5.3 03:29:42 24° NNW 03:29:42 24° NNW 03:32:11 10° N visible
27 Sep 5.5 02:03:20 27° NNE 02:03:20 27° NNE 02:05:19 10° NNE visible
27 Sep 5.5 03:40:01 19° NW 03:40:01 19° NW 03:42:16 10° N visible
28 Sep 6.3 00:36:56 12° NE 00:36:56 12° NE 00:37:22 10° NE visible
28 Sep 5.5 02:13:38 26° N 02:13:38 26° N 02:15:37 10° NNE visible
28 Sep 5.8 03:50:19 16° NW 03:50:19 16° NW 03:52:16 10° NNW visible
29 Sep 6.2 00:47:14 14° NE 00:47:14 14° NE 00:48:00 10° NNE visible
29 Sep 5.6 02:23:55 25° N 02:23:55 25° N 02:25:52 10° N visible
29 Sep 6.0 04:00:36 13° NW 04:00:36 13° NW 04:02:04 10° NNW visible
30 Sep 6.1 00:57:31 16° NNE 00:57:31 16° NNE 00:58:30 10° NNE visible
30 Sep 5.7 02:34:13 23° N 02:34:13 23° N 02:36:05 10° N visible
30 Sep 6.1 04:10:54 10° NW 04:10:54 10° NW 04:11:11 10° NW visible
